contact:dominique.lefevre@mio.osupytheas.fr, maurice.libes@osupytheas.fr, didier.mallarino@osupytheas.fr
Project:EMSO http://www.emso-fr.org/EMSO-France
Depth: 2436.0 m
Title:EMSO Ligure Ouest : Data MII capteur MICROCAT
DateTime_Computer,Latitude,Longitude,Temperature,Conductivity,Pressure,DateTime_Instrument
DateTime_Computer,Latitude,Longitude,degC,S m-1,dbar,DateTime_Instrument
2022-12-18T00:00:55Z,42.805,6.029,13.3012,4.60062,2470.67,2022-12-18T02:06:48Z
2022-12-18T00:03:59Z,42.805,6.029,13.3013,4.60061,2470.693,2022-12-18T02:09:51Z
2022-12-18T00:07:02Z,42.805,6.029,13.3012,4.60062,2470.73,2022-12-18T02:12:54Z
2022-12-18T00:10:05Z,42.805,6.029,13.3013,4.60063,2470.707,2022-12-18T02:15:57Z
2022-12-18T00:13:08Z,42.805,6.029,13.3011,4.60062,2470.693,2022-12-18T02:19:01Z
2022-12-18T00:16:11Z,42.805,6.029,13.3011,4.60062,2470.693,2022-12-18T02:22:04Z
2022-12-18T00:19:14Z,42.805,6.029,13.3012,4.60060,2470.717,2022-12-18T02:25:07Z
2022-12-18T00:22:17Z,42.805,6.029,13.3009,4.60061,2470.717,2022-12-18T02:28:10Z
2022-12-18T00:25:20Z,42.805,6.029,13.3011,4.60062,2470.693,2022-12-18T02:31:13Z
2022-12-18T00:28:23Z,42.805,6.029,13.3010,4.60062,2470.717,2022-12-18T02:34:16Z
2022-12-18T00:31:26Z,42.805,6.029,13.3014,4.60062,2470.74,2022-12-18T02:37:19Z
2022-12-18T00:34:29Z,42.805,6.029,13.3011,4.60061,2470.717,2022-12-18T02:40:22Z
2022-12-18T00:37:32Z,42.805,6.029,13.3009,4.60062,2470.74,2022-12-18T02:43:25Z
2022-12-18T00:40:36Z,42.805,6.029,13.3014,4.60062,2470.707,2022-12-18T02:46:28Z
2022-12-18T00:43:39Z,42.805,6.029,13.3010,4.60062,2470.73,2022-12-18T02:49:31Z
2022-12-18T00:46:42Z,42.805,6.029,13.3015,4.60063,2470.74,2022-12-18T02:52:35Z
2022-12-18T00:49:45Z,42.805,6.029,13.3011,4.60061,2470.717,2022-12-18T02:55:38Z
2022-12-18T00:52:48Z,42.805,6.029,13.3014,4.60062,2470.693,2022-12-18T02:58:41Z
2022-12-18T00:55:51Z,42.805,6.029,13.3011,4.60062,2470.693,2022-12-18T03:01:44Z
2022-12-18T00:58:54Z,42.805,6.029,13.3011,4.60062,2470.74,2022-12-18T03:04:47Z
2022-12-18T01:01:57Z,42.805,6.029,13.3013,4.60062,2470.74,2022-12-18T03:07:50Z
2022-12-18T01:05:00Z,42.805,6.029,13.3011,4.60062,2470.73,2022-12-18T03:10:53Z
2022-12-18T01:08:03Z,42.805,6.029,13.3009,4.60062,2470.717,2022-12-18T03:13:56Z
2022-12-18T01:11:06Z,42.805,6.029,13.3014,4.60062,2470.74,2022-12-18T03:16:59Z
2022-12-18T01:14:09Z,42.805,6.029,13.3013,4.60062,2470.73,2022-12-18T03:20:02Z
2022-12-18T01:17:13Z,42.805,6.029,13.3011,4.60063,2470.74,2022-12-18T03:23:05Z
2022-12-18T01:20:16Z,42.805,6.029,13.3014,4.60061,2470.717,2022-12-18T03:26:08Z
2022-12-18T01:23:19Z,42.805,6.029,13.3015,4.60064,2470.754,2022-12-18T03:29:12Z
2022-12-18T01:26:22Z,42.805,6.029,13.3011,4.60062,2470.73,2022-12-18T03:32:15Z
2022-12-18T01:29:25Z,42.805,6.029,13.3012,4.60063,2470.754,2022-12-18T03:35:18Z
2022-12-18T01:32:28Z,42.805,6.029,13.3016,4.60061,2470.777,2022-12-18T03:38:21Z
2022-12-18T01:35:31Z,42.805,6.029,13.3010,4.60061,2470.754,2022-12-18T03:41:24Z
2022-12-18T01:38:34Z,42.805,6.029,13.3011,4.60061,2470.73,2022-12-18T03:44:27Z
2022-12-18T01:41:37Z,42.805,6.029,13.3013,4.60062,2470.777,2022-12-18T03:47:30Z
2022-12-18T01:44:40Z,42.805,6.029,13.3013,4.60062,2470.777,2022-12-18T03:50:33Z
2022-12-18T01:47:43Z,42.805,6.029,13.3014,4.60064,2470.754,2022-12-18T03:53:36Z
2022-12-18T01:50:47Z,42.805,6.029,13.3011,4.60062,2470.74,2022-12-18T03:56:39Z
2022-12-18T01:53:50Z,42.805,6.029,13.3014,4.60062,2470.74,2022-12-18T03:59:42Z
2022-12-18T01:56:53Z,42.805,6.029,13.3012,4.60062,2470.717,2022-12-18T04:02:46Z
2022-12-18T01:59:56Z,42.805,6.029,13.3013,4.60062,2470.74,2022-12-18T04:05:49Z
2022-12-18T02:02:59Z,42.805,6.029,13.3011,4.60062,2470.754,2022-12-18T04:08:52Z
2022-12-18T02:06:02Z,42.805,6.029,13.3009,4.60062,2470.74,2022-12-18T04:11:55Z
2022-12-18T02:09:05Z,42.805,6.029,13.3015,4.60062,2470.763,2022-12-18T04:14:58Z
2022-12-18T02:12:08Z,42.805,6.029,13.3011,4.60060,2470.754,2022-12-18T04:18:01Z
2022-12-18T02:15:11Z,42.805,6.029,13.3014,4.60065,2470.763,2022-12-18T04:21:04Z
2022-12-18T02:18:14Z,42.805,6.029,13.3014,4.60063,2470.73,2022-12-18T04:24:07Z
2022-12-18T02:21:17Z,42.805,6.029,13.3011,4.60060,2470.777,2022-12-18T04:27:10Z
2022-12-18T02:24:20Z,42.805,6.029,13.3011,4.60060,2470.74,2022-12-18T04:30:13Z
2022-12-18T02:27:24Z,42.805,6.029,13.3011,4.60061,2470.74,2022-12-18T04:33:16Z
2022-12-18T02:30:27Z,42.805,6.029,13.3012,4.60062,2470.754,2022-12-18T04:36:20Z
2022-12-18T02:33:30Z,42.805,6.029,13.3014,4.60062,2470.763,2022-12-18T04:39:23Z
2022-12-18T02:36:33Z,42.805,6.029,13.3009,4.60060,2470.763,2022-12-18T04:42:26Z
2022-12-18T02:39:36Z,42.805,6.029,13.3011,4.60059,2470.787,2022-12-18T04:45:29Z
2022-12-18T02:42:39Z,42.805,6.029,13.3009,4.60061,2470.763,2022-12-18T04:48:32Z
2022-12-18T02:45:42Z,42.805,6.029,13.3011,4.60061,2470.74,2022-12-18T04:51:35Z
2022-12-18T02:48:45Z,42.805,6.029,13.3011,4.60061,2470.74,2022-12-18T04:54:38Z
2022-12-18T02:51:48Z,42.805,6.029,13.3009,4.60061,2470.74,2022-12-18T04:57:41Z
2022-12-18T02:54:51Z,42.805,6.029,13.3011,4.60061,2470.763,2022-12-18T05:00:44Z
2022-12-18T02:57:54Z,42.805,6.029,13.3010,4.60060,2470.74,2022-12-18T05:03:47Z
2022-12-18T03:00:57Z,42.805,6.029,13.3015,4.60060,2470.703,2022-12-18T05:06:50Z
2022-12-18T03:04:01Z,42.805,6.029,13.3010,4.60061,2470.754,2022-12-18T05:09:53Z
2022-12-18T03:07:04Z,42.805,6.029,13.3011,4.60064,2470.74,2022-12-18T05:12:57Z
2022-12-18T03:10:07Z,42.805,6.029,13.3011,4.60061,2470.74,2022-12-18T05:16:00Z
2022-12-18T03:13:10Z,42.805,6.029,13.3011,4.60062,2470.74,2022-12-18T05:19:03Z
2022-12-18T03:16:13Z,42.805,6.029,13.3011,4.60061,2470.763,2022-12-18T05:22:06Z
2022-12-18T03:19:16Z,42.805,6.029,13.3010,4.60059,2470.74,2022-12-18T05:25:09Z
2022-12-18T03:22:19Z,42.805,6.029,13.3015,4.60060,2470.74,2022-12-18T05:28:12Z
2022-12-18T03:25:22Z,42.805,6.029,13.3010,4.60059,2470.763,2022-12-18T05:31:15Z
2022-12-18T03:28:25Z,42.805,6.029,13.3011,4.60060,2470.763,2022-12-18T05:34:18Z
2022-12-18T03:31:28Z,42.805,6.029,13.3010,4.60060,2470.74,2022-12-18T05:37:21Z
2022-12-18T03:34:31Z,42.805,6.029,13.3009,4.60060,2470.74,2022-12-18T05:40:24Z
2022-12-18T03:37:34Z,42.805,6.029,13.3009,4.60060,2470.74,2022-12-18T05:43:27Z
2022-12-18T03:40:38Z,42.805,6.029,13.3015,4.60059,2470.754,2022-12-18T05:46:31Z
2022-12-18T03:43:41Z,42.805,6.029,13.3007,4.60060,2470.763,2022-12-18T05:49:34Z
2022-12-18T03:46:44Z,42.805,6.029,13.3010,4.60060,2470.763,2022-12-18T05:52:37Z
2022-12-18T03:49:47Z,42.805,6.029,13.3009,4.60059,2470.73,2022-12-18T05:55:40Z
2022-12-18T03:52:50Z,42.805,6.029,13.3010,4.60059,2470.717,2022-12-18T05:58:43Z
2022-12-18T03:55:53Z,42.805,6.029,13.3014,4.60059,2470.787,2022-12-18T06:01:46Z
2022-12-18T03:58:56Z,42.805,6.029,13.3009,4.60059,2470.74,2022-12-18T06:04:49Z
2022-12-18T04:01:59Z,42.805,6.029,13.3013,4.60059,2470.777,2022-12-18T06:07:52Z
2022-12-18T04:05:02Z,42.805,6.029,13.3014,4.60060,2470.8,2022-12-18T06:10:55Z
2022-12-18T04:08:05Z,42.805,6.029,13.3012,4.60059,2470.763,2022-12-18T06:13:58Z
2022-12-18T04:11:08Z,42.805,6.029,13.3013,4.60060,2470.74,2022-12-18T06:17:01Z
2022-12-18T04:14:12Z,42.805,6.029,13.3007,4.60060,2470.777,2022-12-18T06:20:04Z
2022-12-18T04:17:15Z,42.805,6.029,13.3009,4.60061,2470.763,2022-12-18T06:23:08Z
2022-12-18T04:20:18Z,42.805,6.029,13.3011,4.60060,2470.74,2022-12-18T06:26:11Z
2022-12-18T04:23:21Z,42.805,6.029,13.3012,4.60060,2470.763,2022-12-18T06:29:14Z
2022-12-18T04:26:24Z,42.805,6.029,13.3007,4.60060,2470.777,2022-12-18T06:32:17Z
2022-12-18T04:29:27Z,42.805,6.029,13.3009,4.60062,2470.777,2022-12-18T06:35:20Z
2022-12-18T04:32:30Z,42.805,6.029,13.3009,4.60061,2470.74,2022-12-18T06:38:23Z
2022-12-18T04:35:33Z,42.805,6.029,13.3011,4.60062,2470.763,2022-12-18T06:41:26Z
2022-12-18T04:38:36Z,42.805,6.029,13.3010,4.60063,2470.74,2022-12-18T06:44:29Z
2022-12-18T04:41:39Z,42.805,6.029,13.3009,4.60064,2470.754,2022-12-18T06:47:32Z
2022-12-18T04:44:42Z,42.805,6.029,13.3012,4.60062,2470.763,2022-12-18T06:50:35Z
2022-12-18T04:47:46Z,42.805,6.029,13.3010,4.60062,2470.763,2022-12-18T06:53:38Z
2022-12-18T04:50:49Z,42.805,6.029,13.3014,4.60060,2470.754,2022-12-18T06:56:42Z
2022-12-18T04:53:52Z,42.805,6.029,13.3013,4.60060,2470.74,2022-12-18T06:59:45Z
2022-12-18T04:56:55Z,42.805,6.029,13.3014,4.60060,2470.74,2022-12-18T07:02:48Z
2022-12-18T04:59:58Z,42.805,6.029,13.3013,4.60062,2470.74,2022-12-18T07:05:51Z
2022-12-18T05:03:01Z,42.805,6.029,13.3009,4.60062,2470.754,2022-12-18T07:08:54Z
2022-12-18T05:06:04Z,42.805,6.029,13.3006,4.60060,2470.754,2022-12-18T07:11:57Z
2022-12-18T05:09:07Z,42.805,6.029,13.3011,4.60062,2470.703,2022-12-18T07:15:00Z
2022-12-18T05:12:10Z,42.805,6.029,13.3011,4.60062,2470.73,2022-12-18T07:18:03Z
2022-12-18T05:15:13Z,42.805,6.029,13.3011,4.60062,2470.754,2022-12-18T07:21:06Z
2022-12-18T05:18:16Z,42.805,6.029,13.3009,4.60062,2470.74,2022-12-18T07:24:09Z
2022-12-18T05:21:19Z,42.805,6.029,13.3014,4.60062,2470.73,2022-12-18T07:27:12Z
2022-12-18T05:24:23Z,42.805,6.029,13.3014,4.60062,2470.763,2022-12-18T07:30:16Z
2022-12-18T05:27:26Z,42.805,6.029,13.3009,4.60061,2470.787,2022-12-18T07:33:19Z
2022-12-18T05:30:29Z,42.805,6.029,13.3011,4.60062,2470.763,2022-12-18T07:36:22Z
2022-12-18T05:33:32Z,42.805,6.029,13.3008,4.60062,2470.763,2022-12-18T07:39:25Z
2022-12-18T05:36:35Z,42.805,6.029,13.3013,4.60061,2470.74,2022-12-18T07:42:28Z
2022-12-18T05:39:38Z,42.805,6.029,13.3010,4.60062,2470.73,2022-12-18T07:45:31Z
2022-12-18T05:42:41Z,42.805,6.029,13.3009,4.60061,2470.74,2022-12-18T07:48:34Z
2022-12-18T05:45:44Z,42.805,6.029,13.3009,4.60062,2470.763,2022-12-18T07:51:37Z
2022-12-18T05:48:47Z,42.805,6.029,13.3012,4.60060,2470.754,2022-12-18T07:54:40Z
2022-12-18T05:51:50Z,42.805,6.029,13.3014,4.60062,2470.754,2022-12-18T07:57:43Z
2022-12-18T05:54:53Z,42.805,6.029,13.3011,4.60062,2470.74,2022-12-18T08:00:46Z
2022-12-18T05:57:57Z,42.805,6.029,13.3014,4.60062,2470.763,2022-12-18T08:03:50Z
2022-12-18T06:01:00Z,42.805,6.029,13.3009,4.60060,2470.74,2022-12-18T08:06:53Z
2022-12-18T06:04:03Z,42.805,6.029,13.3012,4.60066,2470.717,2022-12-18T08:09:56Z
2022-12-18T06:07:06Z,42.805,6.029,13.3014,4.60062,2470.74,2022-12-18T08:12:59Z
2022-12-18T06:10:09Z,42.805,6.029,13.3011,4.60062,2470.763,2022-12-18T08:16:02Z
2022-12-18T06:13:12Z,42.805,6.029,13.3008,4.60060,2470.763,2022-12-18T08:19:05Z
2022-12-18T06:16:15Z,42.805,6.029,13.3013,4.60062,2470.754,2022-12-18T08:22:08Z
2022-12-18T06:19:18Z,42.805,6.029,13.3010,4.60060,2470.754,2022-12-18T08:25:11Z
2022-12-18T06:22:21Z,42.805,6.029,13.3015,4.60060,2470.754,2022-12-18T08:28:14Z
2022-12-18T06:25:24Z,42.805,6.029,13.3009,4.60060,2470.717,2022-12-18T08:31:17Z
2022-12-18T06:28:27Z,42.805,6.029,13.3011,4.60060,2470.754,2022-12-18T08:34:20Z
2022-12-18T06:31:30Z,42.805,6.029,13.3009,4.60062,2470.74,2022-12-18T08:37:23Z
2022-12-18T06:34:34Z,42.805,6.029,13.3013,4.60062,2470.763,2022-12-18T08:40:27Z
2022-12-18T06:37:37Z,42.805,6.029,13.3010,4.60063,2470.73,2022-12-18T08:43:30Z
2022-12-18T06:40:40Z,42.805,6.029,13.3008,4.60060,2470.717,2022-12-18T08:46:33Z
2022-12-18T06:43:43Z,42.805,6.029,13.3011,4.60062,2470.74,2022-12-18T08:49:36Z
2022-12-18T06:46:46Z,42.805,6.029,13.3012,4.60061,2470.777,2022-12-18T08:52:39Z
2022-12-18T06:49:49Z,42.805,6.029,13.3011,4.60061,2470.754,2022-12-18T08:55:42Z
2022-12-18T06:52:52Z,42.805,6.029,13.3014,4.60062,2470.717,2022-12-18T08:58:45Z
2022-12-18T06:55:55Z,42.805,6.029,13.3009,4.60060,2470.74,2022-12-18T09:01:48Z
2022-12-18T06:58:58Z,42.805,6.029,13.3010,4.60061,2470.717,2022-12-18T09:04:51Z
2022-12-18T07:02:01Z,42.805,6.029,13.3009,4.60060,2470.74,2022-12-18T09:07:54Z
2022-12-18T07:05:04Z,42.805,6.029,13.3011,4.60061,2470.717,2022-12-18T09:10:57Z
2022-12-18T07:08:07Z,42.805,6.029,13.3013,4.60061,2470.754,2022-12-18T09:14:01Z
2022-12-18T07:11:11Z,42.805,6.029,13.3011,4.60061,2470.754,2022-12-18T09:17:04Z
2022-12-18T07:14:14Z,42.805,6.029,13.3011,4.60062,2470.74,2022-12-18T09:20:07Z
2022-12-18T07:17:17Z,42.805,6.029,13.3010,4.60062,2470.73,2022-12-18T09:23:10Z
2022-12-18T07:20:20Z,42.805,6.029,13.3014,4.60062,2470.717,2022-12-18T09:26:13Z
2022-12-18T07:23:23Z,42.805,6.029,13.3011,4.60060,2470.74,2022-12-18T09:29:16Z
2022-12-18T07:26:26Z,42.805,6.029,13.3013,4.60062,2470.74,2022-12-18T09:32:19Z
2022-12-18T07:29:29Z,42.805,6.029,13.3012,4.60059,2470.717,2022-12-18T09:35:22Z
2022-12-18T07:32:32Z,42.805,6.029,13.3011,4.60062,2470.74,2022-12-18T09:38:25Z
2022-12-18T07:35:35Z,42.805,6.029,13.3014,4.60062,2470.707,2022-12-18T09:41:28Z
2022-12-18T07:38:38Z,42.805,6.029,13.3011,4.60060,2470.74,2022-12-18T09:44:31Z
2022-12-18T07:41:41Z,42.805,6.029,13.3010,4.60061,2470.74,2022-12-18T09:47:34Z
2022-12-18T07:44:45Z,42.805,6.029,13.3010,4.60062,2470.717,2022-12-18T09:50:38Z
2022-12-18T07:47:48Z,42.805,6.029,13.3012,4.60061,2470.717,2022-12-18T09:53:41Z
2022-12-18T07:50:51Z,42.805,6.029,13.3011,4.60060,2470.754,2022-12-18T09:56:44Z
2022-12-18T07:53:54Z,42.805,6.029,13.3015,4.60059,2470.74,2022-12-18T09:59:47Z
2022-12-18T07:56:57Z,42.805,6.029,13.3012,4.60061,2470.717,2022-12-18T10:02:50Z
2022-12-18T08:00:00Z,42.805,6.029,13.3008,4.60060,2470.717,2022-12-18T10:05:53Z
2022-12-18T08:03:03Z,42.805,6.029,13.3009,4.60060,2470.73,2022-12-18T10:08:56Z
2022-12-18T08:06:06Z,42.805,6.029,13.3011,4.60060,2470.754,2022-12-18T10:11:59Z
2022-12-18T08:09:09Z,42.805,6.029,13.3009,4.60061,2470.754,2022-12-18T10:15:02Z
2022-12-18T08:12:12Z,42.805,6.029,13.3011,4.60059,2470.74,2022-12-18T10:18:05Z
2022-12-18T08:15:15Z,42.805,6.029,13.3012,4.60062,2470.717,2022-12-18T10:21:08Z
2022-12-18T08:18:19Z,42.805,6.029,13.3011,4.60061,2470.754,2022-12-18T10:24:12Z
2022-12-18T08:21:22Z,42.805,6.029,13.3009,4.60061,2470.717,2022-12-18T10:27:15Z
2022-12-18T08:24:25Z,42.805,6.029,13.3014,4.60061,2470.74,2022-12-18T10:30:18Z
2022-12-18T08:27:28Z,42.805,6.029,13.3012,4.60059,2470.717,2022-12-18T10:33:21Z
2022-12-18T08:30:31Z,42.805,6.029,13.3013,4.60062,2470.74,2022-12-18T10:36:24Z
2022-12-18T08:33:34Z,42.805,6.029,13.3010,4.60059,2470.717,2022-12-18T10:39:27Z
2022-12-18T08:36:37Z,42.805,6.029,13.3009,4.60060,2470.74,2022-12-18T10:42:30Z
2022-12-18T08:39:40Z,42.805,6.029,13.3007,4.60061,2470.717,2022-12-18T10:45:33Z
2022-12-18T08:42:43Z,42.805,6.029,13.3011,4.60059,2470.717,2022-12-18T10:48:36Z
2022-12-18T08:45:46Z,42.805,6.029,13.3011,4.60062,2470.717,2022-12-18T10:51:39Z
2022-12-18T08:48:49Z,42.805,6.029,13.3011,4.60060,2470.717,2022-12-18T10:54:43Z
2022-12-18T08:51:53Z,42.805,6.029,13.3011,4.60062,2470.717,2022-12-18T10:57:46Z
2022-12-18T08:54:56Z,42.805,6.029,13.3013,4.60059,2470.74,2022-12-18T11:00:49Z
2022-12-18T08:57:59Z,42.805,6.029,13.3010,4.60060,2470.777,2022-12-18T11:03:52Z
2022-12-18T09:01:02Z,42.805,6.029,13.3011,4.60060,2470.763,2022-12-18T11:06:55Z
2022-12-18T09:04:05Z,42.805,6.029,13.3011,4.60060,2470.74,2022-12-18T11:09:58Z
2022-12-18T09:07:08Z,42.805,6.029,13.3011,4.60060,2470.717,2022-12-18T11:13:01Z
2022-12-18T09:10:11Z,42.805,6.029,13.3012,4.60062,2470.73,2022-12-18T11:16:04Z
2022-12-18T09:13:14Z,42.805,6.029,13.3009,4.60060,2470.763,2022-12-18T11:19:07Z
2022-12-18T09:16:17Z,42.805,6.029,13.3011,4.60060,2470.717,2022-12-18T11:22:10Z
2022-12-18T09:19:20Z,42.805,6.029,13.3011,4.60061,2470.693,2022-12-18T11:25:13Z
2022-12-18T09:22:23Z,42.805,6.029,13.3011,4.60061,2470.717,2022-12-18T11:28:17Z
2022-12-18T09:25:27Z,42.805,6.029,13.3014,4.60062,2470.74,2022-12-18T11:31:20Z
2022-12-18T09:28:30Z,42.805,6.029,13.3012,4.60059,2470.717,2022-12-18T11:34:23Z
2022-12-18T09:31:33Z,42.805,6.029,13.3011,4.60060,2470.754,2022-12-18T11:37:26Z
2022-12-18T09:34:36Z,42.805,6.029,13.3009,4.60061,2470.754,2022-12-18T11:40:29Z
2022-12-18T09:37:39Z,42.805,6.029,13.3015,4.60061,2470.754,2022-12-18T11:43:32Z
2022-12-18T09:40:42Z,42.805,6.029,13.3011,4.60060,2470.754,2022-12-18T11:46:35Z
2022-12-18T09:43:45Z,42.805,6.029,13.3009,4.60062,2470.74,2022-12-18T11:49:38Z
2022-12-18T09:46:48Z,42.805,6.029,13.3010,4.60060,2470.717,2022-12-18T11:52:41Z
2022-12-18T09:49:51Z,42.805,6.029,13.3011,4.60061,2470.717,2022-12-18T11:55:44Z
2022-12-18T09:52:54Z,42.805,6.029,13.3013,4.60062,2470.777,2022-12-18T11:58:47Z
2022-12-18T09:55:57Z,42.805,6.029,13.3013,4.60061,2470.73,2022-12-18T12:01:51Z
2022-12-18T09:59:01Z,42.805,6.029,13.3010,4.60061,2470.777,2022-12-18T12:04:54Z
2022-12-18T10:02:04Z,42.805,6.029,13.3010,4.60060,2470.717,2022-12-18T12:07:57Z
2022-12-18T10:05:07Z,42.805,6.029,13.3011,4.60061,2470.74,2022-12-18T12:11:00Z
2022-12-18T10:08:10Z,42.805,6.029,13.3010,4.60059,2470.74,2022-12-18T12:14:03Z
2022-12-18T10:11:13Z,42.805,6.029,13.3007,4.60060,2470.754,2022-12-18T12:17:06Z
2022-12-18T10:14:16Z,42.805,6.029,13.3013,4.60060,2470.763,2022-12-18T12:20:09Z
2022-12-18T10:17:19Z,42.805,6.029,13.3010,4.60061,2470.763,2022-12-18T12:23:12Z
2022-12-18T10:20:22Z,42.805,6.029,13.3012,4.60060,2470.763,2022-12-18T12:26:15Z
2022-12-18T10:23:25Z,42.805,6.029,13.3009,4.60061,2470.754,2022-12-18T12:29:18Z
2022-12-18T10:26:28Z,42.805,6.029,13.3011,4.60061,2470.74,2022-12-18T12:32:22Z
2022-12-18T10:29:31Z,42.805,6.029,13.3008,4.60060,2470.73,2022-12-18T12:35:25Z
2022-12-18T10:32:35Z,42.805,6.029,13.3008,4.60062,2470.754,2022-12-18T12:38:28Z
2022-12-18T10:35:38Z,42.805,6.029,13.3012,4.60065,2470.763,2022-12-18T12:41:31Z
2022-12-18T10:38:41Z,42.805,6.029,13.3013,4.60062,2470.74,2022-12-18T12:44:34Z
2022-12-18T10:41:44Z,42.805,6.029,13.3009,4.60062,2470.763,2022-12-18T12:47:37Z
2022-12-18T10:44:47Z,42.805,6.029,13.3011,4.60061,2470.74,2022-12-18T12:50:40Z
2022-12-18T10:47:50Z,42.805,6.029,13.3015,4.60062,2470.74,2022-12-18T12:53:43Z
2022-12-18T10:50:53Z,42.805,6.029,13.3008,4.60063,2470.74,2022-12-18T12:56:46Z
2022-12-18T10:53:56Z,42.805,6.029,13.3010,4.60061,2470.693,2022-12-18T12:59:49Z
2022-12-18T10:56:59Z,42.805,6.029,13.3013,4.60061,2470.74,2022-12-18T13:02:52Z
2022-12-18T11:00:02Z,42.805,6.029,13.3011,4.60062,2470.75,2022-12-18T13:05:56Z
2022-12-18T11:03:05Z,42.805,6.029,13.3012,4.60064,2470.763,2022-12-18T13:08:59Z
2022-12-18T11:06:09Z,42.805,6.029,13.3013,4.60061,2470.74,2022-12-18T13:12:02Z
2022-12-18T11:09:12Z,42.805,6.029,13.3011,4.60062,2470.763,2022-12-18T13:15:05Z
2022-12-18T11:12:15Z,42.805,6.029,13.3011,4.60063,2470.81,2022-12-18T13:18:08Z
2022-12-18T11:15:18Z,42.805,6.029,13.3011,4.60062,2470.763,2022-12-18T13:21:11Z
2022-12-18T11:18:21Z,42.805,6.029,13.3008,4.60062,2470.8,2022-12-18T13:24:14Z
2022-12-18T11:21:24Z,42.805,6.029,13.3011,4.60062,2470.787,2022-12-18T13:27:17Z
2022-12-18T11:24:27Z,42.805,6.029,13.3012,4.60061,2470.824,2022-12-18T13:30:20Z
2022-12-18T11:27:30Z,42.805,6.029,13.3011,4.60062,2470.8,2022-12-18T13:33:23Z
2022-12-18T11:30:33Z,42.805,6.029,13.3010,4.60062,2470.763,2022-12-18T13:36:26Z
2022-12-18T11:33:36Z,42.805,6.029,13.3012,4.60062,2470.787,2022-12-18T13:39:30Z
2022-12-18T11:36:40Z,42.805,6.029,13.3011,4.60062,2470.763,2022-12-18T13:42:33Z
2022-12-18T11:39:43Z,42.805,6.029,13.3012,4.60064,2470.777,2022-12-18T13:45:36Z
2022-12-18T11:42:46Z,42.805,6.029,13.3013,4.60062,2470.8,2022-12-18T13:48:39Z
2022-12-18T11:45:49Z,42.805,6.029,13.3007,4.60062,2470.787,2022-12-18T13:51:42Z
2022-12-18T11:48:52Z,42.805,6.029,13.3010,4.60061,2470.763,2022-12-18T13:54:45Z
2022-12-18T11:51:55Z,42.805,6.029,13.3014,4.60061,2470.824,2022-12-18T13:57:48Z
2022-12-18T11:54:58Z,42.805,6.029,13.3008,4.60062,2470.787,2022-12-18T14:00:51Z
2022-12-18T11:58:01Z,42.805,6.029,13.3012,4.60063,2470.787,2022-12-18T14:03:54Z
2022-12-18T12:01:04Z,42.805,6.029,13.3011,4.60061,2470.787,2022-12-18T14:06:57Z
2022-12-18T12:04:07Z,42.805,6.029,13.3015,4.60061,2470.763,2022-12-18T14:10:01Z
2022-12-18T12:07:10Z,42.805,6.029,13.3014,4.60062,2470.8,2022-12-18T14:13:04Z
2022-12-18T12:10:13Z,42.805,6.029,13.3010,4.60062,2470.763,2022-12-18T14:16:07Z
2022-12-18T12:13:17Z,42.805,6.029,13.3011,4.60065,2470.8,2022-12-18T14:19:10Z
2022-12-18T12:16:20Z,42.805,6.029,13.3011,4.60062,2470.81,2022-12-18T14:22:13Z
2022-12-18T12:19:23Z,42.805,6.029,13.3012,4.60061,2470.763,2022-12-18T14:25:16Z
2022-12-18T12:22:26Z,42.805,6.029,13.3013,4.60063,2470.787,2022-12-18T14:28:19Z
2022-12-18T12:25:29Z,42.805,6.029,13.3011,4.60062,2470.824,2022-12-18T14:31:22Z
2022-12-18T12:28:32Z,42.805,6.029,13.3015,4.60063,2470.763,2022-12-18T14:34:25Z
2022-12-18T12:31:35Z,42.805,6.029,13.3010,4.60062,2470.81,2022-12-18T14:37:28Z
2022-12-18T12:34:38Z,42.805,6.029,13.3012,4.60061,2470.81,2022-12-18T14:40:31Z
2022-12-18T12:37:41Z,42.805,6.029,13.3013,4.60062,2470.787,2022-12-18T14:43:35Z
2022-12-18T12:40:44Z,42.805,6.029,13.3012,4.60062,2470.833,2022-12-18T14:46:38Z
2022-12-18T12:43:48Z,42.805,6.029,13.3013,4.60065,2470.81,2022-12-18T14:49:41Z
2022-12-18T12:46:51Z,42.805,6.029,13.3011,4.60064,2470.824,2022-12-18T14:52:44Z
2022-12-18T12:49:54Z,42.805,6.029,13.3013,4.60062,2470.81,2022-12-18T14:55:47Z
2022-12-18T12:52:57Z,42.805,6.029,13.3013,4.60062,2470.833,2022-12-18T14:58:50Z
2022-12-18T12:56:00Z,42.805,6.029,13.3011,4.60063,2470.833,2022-12-18T15:01:53Z
2022-12-18T12:59:03Z,42.805,6.029,13.3015,4.60062,2470.824,2022-12-18T15:04:56Z
2022-12-18T13:02:06Z,42.805,6.029,13.3011,4.60061,2470.81,2022-12-18T15:07:59Z
2022-12-18T13:05:09Z,42.805,6.029,13.3012,4.60062,2470.81,2022-12-18T15:11:02Z
2022-12-18T13:08:12Z,42.805,6.029,13.3013,4.60062,2470.824,2022-12-18T15:14:05Z
2022-12-18T13:11:15Z,42.805,6.029,13.3011,4.60062,2470.787,2022-12-18T15:17:09Z
2022-12-18T13:14:18Z,42.805,6.029,13.3016,4.60062,2470.847,2022-12-18T15:20:12Z
2022-12-18T13:17:22Z,42.805,6.029,13.3011,4.60062,2470.81,2022-12-18T15:23:15Z
2022-12-18T13:20:25Z,42.805,6.029,13.3012,4.60062,2470.81,2022-12-18T15:26:18Z
2022-12-18T13:23:28Z,42.805,6.029,13.3011,4.60062,2470.8,2022-12-18T15:29:21Z
2022-12-18T13:26:31Z,42.805,6.029,13.3009,4.60061,2470.81,2022-12-18T15:32:24Z
2022-12-18T13:29:34Z,42.805,6.029,13.3012,4.60062,2470.833,2022-12-18T15:35:27Z
2022-12-18T13:32:37Z,42.805,6.029,13.3011,4.60061,2470.787,2022-12-18T15:38:30Z
2022-12-18T13:35:40Z,42.805,6.029,13.3015,4.60061,2470.787,2022-12-18T15:41:33Z
2022-12-18T13:38:43Z,42.805,6.029,13.3009,4.60062,2470.81,2022-12-18T15:44:36Z
2022-12-18T13:41:46Z,42.805,6.029,13.3014,4.60062,2470.833,2022-12-18T15:47:40Z
2022-12-18T13:44:49Z,42.805,6.029,13.3012,4.60064,2470.833,2022-12-18T15:50:43Z
2022-12-18T13:47:52Z,42.805,6.029,13.3014,4.60062,2470.824,2022-12-18T15:53:46Z
2022-12-18T13:50:56Z,42.805,6.029,13.3014,4.60061,2470.787,2022-12-18T15:56:49Z
2022-12-18T13:53:59Z,42.805,6.029,13.3011,4.60061,2470.81,2022-12-18T15:59:52Z
2022-12-18T13:57:02Z,42.805,6.029,13.3011,4.60061,2470.871,2022-12-18T16:02:55Z
2022-12-18T14:00:05Z,42.805,6.029,13.3016,4.60062,2470.824,2022-12-18T16:05:58Z
2022-12-18T14:03:08Z,42.805,6.029,13.3014,4.60062,2470.833,2022-12-18T16:09:01Z
2022-12-18T14:06:11Z,42.805,6.029,13.3013,4.60062,2470.81,2022-12-18T16:12:04Z
2022-12-18T14:09:14Z,42.805,6.029,13.3010,4.60062,2470.847,2022-12-18T16:15:07Z
2022-12-18T14:12:17Z,42.805,6.029,13.3012,4.60061,2470.81,2022-12-18T16:18:10Z
2022-12-18T14:15:20Z,42.805,6.029,13.3013,4.60061,2470.847,2022-12-18T16:21:14Z
2022-12-18T14:18:23Z,42.805,6.029,13.3011,4.60061,2470.857,2022-12-18T16:24:17Z
2022-12-18T14:21:26Z,42.805,6.029,13.3011,4.60062,2470.833,2022-12-18T16:27:20Z
2022-12-18T14:24:30Z,42.805,6.029,13.3014,4.60062,2470.833,2022-12-18T16:30:23Z
2022-12-18T14:27:33Z,42.805,6.029,13.3012,4.60062,2470.833,2022-12-18T16:33:26Z
2022-12-18T14:30:36Z,42.805,6.029,13.3014,4.60062,2470.81,2022-12-18T16:36:29Z
2022-12-18T14:33:39Z,42.805,6.029,13.3009,4.60062,2470.861,2022-12-18T16:39:32Z
2022-12-18T14:36:42Z,42.805,6.029,13.3011,4.60063,2470.81,2022-12-18T16:42:35Z
2022-12-18T14:39:45Z,42.805,6.029,13.3014,4.60062,2470.824,2022-12-18T16:45:38Z
2022-12-18T14:42:48Z,42.805,6.029,13.3013,4.60062,2470.81,2022-12-18T16:48:41Z
2022-12-18T14:45:51Z,42.805,6.029,13.3014,4.60062,2470.824,2022-12-18T16:51:44Z
2022-12-18T14:48:54Z,42.805,6.029,13.3014,4.60061,2470.833,2022-12-18T16:54:48Z
2022-12-18T14:51:57Z,42.805,6.029,13.3014,4.60062,2470.833,2022-12-18T16:57:51Z
2022-12-18T14:55:01Z,42.805,6.029,13.3010,4.60062,2470.824,2022-12-18T17:00:54Z
2022-12-18T14:58:04Z,42.805,6.029,13.3012,4.60062,2470.824,2022-12-18T17:03:57Z
2022-12-18T15:01:07Z,42.805,6.029,13.3009,4.60062,2470.847,2022-12-18T17:07:00Z